This demonstration page uses our WeatherBlox Daily Observations layout. Learn more.

Left ArrowRight Arrow

Hourly Observations for July 13, 2016

Temp ( °F °C ) Dew Point ( °F °C ) Humidity (%) Winds ( mph kmh ) Pressure ( in mb ) Visibility ( mi km ) Precip ( " mm )
12:53 am 00:53 Clear 75 23.9 67 19.4 76 76 Calm 30.10 1019 10 16 0.00 0.00
1:53 am 01:53 Clear 75 23.9 67 19.4 76 76 Calm 30.09 1019 10 16 0.00 0.00
2:53 am 02:53 Clear 74 23.3 67 19.4 79 79 VRB 3 6 30.10 1019 10 16 0.00 0.00
3:53 am 03:53 Clear 71 21.7 68 20 90 90 Calm 30.11 1020 10 16 0.00 0.00
4:53 am 04:53 Clear 73 22.8 67 19.4 81 81 Calm 30.11 1020 10 16 0.00 0.00
5:53 am 05:53 Clear 72 22.2 67 19.4 84 84 Calm 30.13 1020 10 16 0.00 0.00
6:53 am 06:53 Sunny 73 22.8 66 18.9 79 79 Calm 30.13 1020 10 16 0.00 0.00
7:53 am 07:53 Mostly Sunny 73 22.8 66 18.9 79 79 Calm 30.14 1021 10 16 0.00 0.00
8:53 am 08:53 Sunny 76 24.4 67 19.4 74 74 Calm 30.15 1021 10 16 0.00 0.00
9:53 am 09:53 Sunny 79 26.1 66 18.9 65 65 WNW 7 11 30.16 1021 10 16 0.00 0.00
10:53 am 10:53 Sunny 82 27.8 65 18.3 56 56 NNW 8 13 30.16 1021 10 16 0.00 0.00
12:53 pm 12:53 Sunny 88 31 66 19 49 49 N 8 13 30.15 1021 10 16 0.00 0.00
1:53 pm 13:53 Sunny 90 32 70 21 52 52 VRB 6 9 30.12 1020 10 16 0.00 0.00
2:53 pm 14:53 Partly Cloudy 90 32 68 20 49 49 VRB 5 7 30.06 1018 10 16 0.00 0.00
3:53 pm 15:53 Sunny 91 32.8 65 18.3 42 42 undefined N/A 30.09 1019 10 16 0.00 0.00
4:53 pm 16:53 Sunny 91 32.8 61 16.1 37 37 NW 3 6 30.06 1018 10 16 0.00 0.00
6:53 pm 18:53 Sunny 92 33.3 62 16.7 37 37 Calm 30.02 1017 10 16 0.00 0.00
7:53 pm 19:53 Sunny 89 31.7 66 18.9 47 47 WSW 7 11 30.04 1017 10 16 0.00 0.00
8:53 pm 20:53 Clear 87 30.6 66 18.9 50 50 SW 5 7 30.04 1017 10 16 0.00 0.00
9:53 pm 21:53 Clear 85 29.4 67 19.4 55 55 SW 6 9 30.07 1018 10 16 0.00 0.00
10:53 pm 22:53 Clear 82 27.8 69 20.6 65 65 SW 8 13 30.09 1019 10 16 0.00 0.00
11:53 pm 23:53 Clear 80 26.7 69 20.6 69 69 SW 5 7 30.10 1019 10 16 0.00 0.00

Powered by AerisWeather